Starlink 31159

operational
NORAD ID: 58740 Int'l Des: 2024-005 Owner: SPXS Country: US Constellation: starlink
LEOCIRCULAR

About Starlink 31159

Description loading...

Live Position

Loading 3D Globe...

Upcoming Passes

Altitude History

Altitude vs Time

uPlot chart will show altitude changes over time

Two-Line Element Set

1 58740U 24005N 25350.94789022 .00000782 00000-0 72962-4 0 9998
2 58740 43.0050 311.3384 0001089 278.1232 81.9487 15.02539097108067
Epoch: Dec 16, 2025 • Age: 6 hours

Current Status

Altitude 571.7 km
Velocity 7.58 km/s
Sub-Earth Point -43.16°S, 63.33°E
Launch Date Jan 7, 2024
Age 1.9 years
Type internet

Technical Details

Classification Payload
Mass 730.00 kg
Dry Mass 700.00 kg
Total Mass 730.00 kg
Length 0.30 m
Diameter 4.10 m
Span 29.00 m
Shape Box + pan
Manufacturer SPXS
Bus Type Starlink V2M
Phase Status In Orbit
Owner/State SPXS/US

Large Constellations

Loading constellations...